[[{"header":{"parameterUnit":"m.s-1","parameterCategory":1,"la1":30.2991,"la2":30.254,"lo1":-89.0895,"lo2":-89.0444,"dy":0.0017,"dx":0.0017,"nx":28,"ny":28,"refTime":"2024-03-09T03:00:00:Z","depth":0,"parameterNumber":2,"parameterNumberName":"U-component_of_WINDS"},"data":[0,0,0,0,0,0,0,0,0,0,0,0,0,0,0,0,0,0,0,0,0,0,0,0,0,0,0,0,0,0,0,0,0,0,0,0,0,0,0,0,0,0,0,0,0,0,0,0,0,0,0,0,0,0,0,0,0,0,0.3908,0.3909,0,0.3943,0.3944,0.3944,0.3968,0.3968,0.3968,0.3968,0.4004,0.4005,0.4006,0,0,0,0,0,0,0,0,0,0,0,0,0,0.3862,0.3863,0.3908,0.3909,0.3909,0.3943,0.3944,0.3944,0.3968,0.3968,0.3968,0.3968,0.4004,0.4005,0.4006,0,0,0,0,0,0,0,0,0,0,0,0,0,0.3888,0.3863,0.3908,0.3925,0.3927,0.3943,0.3944,0.3944,0.3968,0.3968,0.3968,0.3968,0.4004,0.4005,0.4006,0.4009,0,0,0.401,0.401,0,0,0,0,0,0,0,0,0.3887,0.389,0.3922,0.3924,0.3926,0.3951,0.3941,0.3966,0.3968,0.3952,0.3968,0.3969,0.3987,0.3989,0.3995,0.401,0.4012,0.401,0.4011,0.4011,0.4011,0,0,0,0,0,0,0,0.3885,0.3889,0.3922,0.3922,0.3925,0.3931,0.3935,0.3946,0.3968,0.3954,0.3955,0.3959,0.3988,0.3994,0.3996,0.4012,0.401,0.4011,0.4012,0.4012,0.4033,0.4032,0,0,0,0,0,0,0.3881,0.3887,0.3921,0.3923,0.3907,0.3932,0.3936,0.3943,0.3967,0.3971,0.3959,0.396,0.3992,0.3995,0.3998,0.4003,0.4011,0.4012,0.4013,0.4033,0.4033,0.4032,0,0,0,0,0,0,0.3879,0.3883,0.392,0.3906,0.3911,0.3932,0.394,0.3944,0.395,0.3972,0.3976,0.3961,0.3992,0.3996,0.4006,0.4004,0.4013,0.4014,0.4033,0.4033,0.4032,0.4013,0,0,0,0,0,0,0.3878,0.3883,0.3884,0.3905,0.3911,0.3927,0.394,0.3944,0.3952,0.3954,0.3975,0.3979,0.3993,0.4004,0.4007,0.4006,0.4015,0.4033,0.4033,0.4033,0.4014,0.4012,0.401,0,0,0,0,0,0.3876,0.3876,0.3884,0.3887,0.3913,0.3927,0.393,0.3946,0.3952,0.3953,0.3967,0.3978,0.4004,0.4005,0.4009,0.4008,0.4033,0.4033,0.4033,0.4014,0.4012,0.401,0,0,0,0,0,0,0.3854,0.388,0.3888,0.3895,0.3909,0.3931,0.3933,0.3943,0.3956,0.3957,0.3976,0.3981,0.3989,0.4,0.4,0.4012,0.402,0.402,0.4005,0.4003,0.4001,0.3999,0.4016,0,0,0,0,0,0.385,0.3859,0.3881,0.3885,0.3892,0.3911,0.3918,0.3929,0.3944,0.395,0.3964,0.3979,0.399,0.3997,0.4009,0.4015,0.4021,0.4017,0.4015,0.4014,0.4014,0.4019,0.4018,0.4031,0.4031,0.4031,0,0,0.3841,0.3856,0.3861,0.3881,0.3893,0.3902,0.3916,0.3925,0.3932,0.3951,0.3962,0.3973,0.399,0.3999,0.4003,0.4008,0.4011,0.4013,0.4012,0.4013,0.4018,0.4017,0.4016,0.4031,0.4031,0.4031,0,0,0.383,0.3843,0.3848,0.386,0.3878,0.3891,0.3892,0.3913,0.3921,0.3932,0.3947,0.3956,0.3976,0.3987,0.3996,0.3991,0.4002,0.3994,0.3986,0.399,0.3989,0.3988,0.3987,0.3986,0.3994,0.3994,0.3994,0,0.3817,0.3832,0.3849,0.3858,0.3866,0.3885,0.389,0.3901,0.3922,0.3928,0.3933,0.3958,0.3971,0.3982,0.3981,0.3988,0.399,0.3992,0.3988,0.3987,0.3987,0.3986,0.3985,0.3993,0.3993,0.3994,0.3994,0,0.3815,0.3825,0.3827,0.3847,0.3856,0.3863,0.3882,0.3889,0.39,0.3913,0.3924,0.3941,0.3956,0.396,0.3971,0.3974,0.3976,0.3984,0.3992,0.3984,0.3983,0.3983,0.3992,0.3992,0.3993,0.3993,0,0,0.3791,0.3821,0.3821,0.3831,0.3853,0.3861,0.3869,0.3885,0.3891,0.3905,0.3912,0.3929,0.3937,0.3946,0.3959,0.3963,0.3958,0.397,0.3971,0.3968,0.3964,0.3957,0.3957,0.3966,0.3966,0.3966,0.3962,0,0.3783,0.3799,0.3815,0.3825,0.3835,0.3853,0.386,0.3875,0.3887,0.3897,0.3911,0.3923,0.3932,0.3938,0.3943,0.3958,0.3958,0.3958,0.3974,0.3974,0.3969,0.3956,0.395,0.3945,0.3962,0.3962,0.3962,0,0.3777,0.379,0.3801,0.3823,0.3827,0.3833,0.385,0.3859,0.3876,0.3885,0.3896,0.391,0.392,0.3927,0.3942,0.3942,0.3949,0.3957,0.3958,0.396,0.3967,0.3958,0.3944,0.3944,0.3962,0.3962,0.3962,0,0.3758,0.3779,0.3788,0.3796,0.3821,0.3825,0.3836,0.3853,0.3862,0.3876,0.3882,0.3897,0.3906,0.3917,0.3935,0.3938,0.3948,0.3956,0.3956,0.3955,0.3956,0.3956,0.3944,0.3961,0.3961,0.3961,0.3961,0,0.3748,0.3754,0.378,0.3786,0.3793,0.3813,0.382,0.3832,0.3848,0.3857,0.3873,0.3881,0.3904,0.3915,0.3928,0.3939,0.3942,0.395,0.3953,0.3948,0.3947,0.3953,0.3954,0.3961,0.3961,0.3961,0.3961,0,0.3728,0.3746,0.3757,0.3781,0.3787,0.3791,0.3811,0.3818,0.3832,0.3843,0.3847,0.3869,0.3882,0.3901,0.392,0.3929,0.3938,0.3944,0.3932,0.3935,0.3933,0.3933,0.3924,0.3924,0.3941,0.3941,0.3941,0,0.372,0.3725,0.3749,0.3757,0.3767,0.3778,0.3787,0.3807,0.3816,0.3836,0.384,0.3856,0.3869,0.389,0.3908,0.3923,0.3929,0.3925,0.3931,0.3927,0.3929,0.3929,0.393,0.3923,0.3923,0.3923,0.3923,0,0.3705,0.3714,0.3726,0.3742,0.3752,0.3765,0.378,0.3785,0.3807,0.3816,0.3831,0.3841,0.3861,0.3876,0.3894,0.3906,0.3918,0.3921,0.3921,0.3916,0.3909,0.3913,0.3928,0.3921,0.3921,0.3921,0.3921,0.3921,0.3691,0.3697,0.3715,0.3728,0.3741,0.3754,0.3762,0.3777,0.3789,0.3807,0.3818,0.3832,0.385,0.3876,0.3887,0.3898,0.3903,0.3904,0.3904,0.3904,0.3903,0.3908,0.3902,0.3902,0.3902,0.3902,0.3902,0,0.3677,0.369,0.3702,0.3721,0.3732,0.3743,0.376,0.3768,0.378,0.3796,0.3809,0.3826,0.3841,0.386,0.3876,0.3882,0.3888,0.3886,0.3885,0.3888,0.3897,0.3895,0.3881,0.3881,0.3881,0.3881,0.3881,0.3881,0.3671,0.3681,0.3692,0.371,0.3723,0.3737,0.3745,0.3758,0.377,0.3789,0.3801,0.3814,0.3831,0.3849,0.3864,0.3869,0.3874,0.387,0.3877,0.3885,0.3887,0.3889,0.3887,0.3871,0.3871,0.3867,0.3867,0.3867]},{"header":{"parameterUnit":"m.s-1","parameterCategory":1,"la1":30.2991,"la2":30.254,"lo1":-89.0895,"lo2":-89.0444,"dy":0.0017,"dx":0.0017,"nx":28,"ny":28,"refTime":"2024-03-09T03:00:00:Z","depth":0,"parameterNumber":3,"parameterNumberName":"V-component_of_WINDS"},"data":[0,0,0,0,0,0,0,0,0,0,0,0,0,0,0,0,0,0,0,0,0,0,0,0,0,0,0,0,0,0,0,0,0,0,0,0,0,0,0,0,0,0,0,0,0,0,0,0,0,0,0,0,0,0,0,0,0,0,-3.9411,-3.9411,0,-3.9448,-3.9449,-3.9449,-3.9452,-3.9451,-3.9451,-3.9451,-3.9485,-3.9486,-3.9487,0,0,0,0,0,0,0,0,0,0,0,0,0,-3.9339,-3.934,-3.9411,-3.9411,-3.9412,-3.9448,-3.9449,-3.9449,-3.9452,-3.9451,-3.9451,-3.945,-3.9485,-3.9486,-3.9488,0,0,0,0,0,0,0,0,0,0,0,0,0,-3.9372,-3.9341,-3.941,-3.9417,-3.9418,-3.9448,-3.9449,-3.9449,-3.9452,-3.9451,-3.9451,-3.945,-3.9484,-3.9486,-3.9488,-3.9512,0,0,-3.9494,-3.9495,0,0,0,0,0,0,0,0,-3.9371,-3.9375,-3.9416,-3.9417,-3.9418,-3.9445,-3.9436,-3.947,-3.9452,-3.9439,-3.9451,-3.945,-3.9472,-3.9475,-3.9483,-3.9514,-3.9515,-3.9494,-3.9495,-3.9496,-3.9496,0,0,0,0,0,0,0,-3.9368,-3.9373,-3.9425,-3.9416,-3.9418,-3.9418,-3.9422,-3.9442,-3.9458,-3.944,-3.944,-3.9445,-3.9472,-3.9481,-3.9484,-3.9516,-3.9494,-3.9496,-3.9497,-3.9498,-3.9571,-3.9571,0,0,0,0,0,0,-3.9365,-3.9371,-3.9424,-3.9426,-3.9393,-3.942,-3.9424,-3.9437,-3.9458,-3.9461,-3.9446,-3.9445,-3.9478,-3.9482,-3.9485,-3.9517,-3.9496,-3.9498,-3.9499,-3.957,-3.9571,-3.9572,0,0,0,0,0,0,-3.9363,-3.937,-3.9423,-3.9399,-3.9406,-3.9422,-3.9436,-3.9438,-3.9447,-3.9462,-3.9465,-3.9452,-3.9478,-3.9482,-3.9506,-3.9518,-3.9499,-3.95,-3.9569,-3.957,-3.9571,-3.9579,0,0,0,0,0,0,-3.9361,-3.9369,-3.9379,-3.9399,-3.9407,-3.9444,-3.9436,-3.9439,-3.9451,-3.945,-3.9469,-3.9471,-3.9478,-3.9503,-3.9508,-3.952,-3.9502,-3.9568,-3.9569,-3.9571,-3.9578,-3.958,-3.9582,0,0,0,0,0,-3.9359,-3.9378,-3.9379,-3.9386,-3.942,-3.9444,-3.9449,-3.9457,-3.9451,-3.9461,-3.9472,-3.9471,-3.9516,-3.9506,-3.9511,-3.9524,-3.9567,-3.9569,-3.9571,-3.9577,-3.958,-3.9582,0,0,0,0,0,0,-3.9356,-3.9381,-3.9382,-3.9409,-3.9425,-3.9445,-3.9457,-3.9459,-3.9476,-3.9475,-3.9483,-3.9487,-3.9511,-3.952,-3.9508,-3.955,-3.9541,-3.9544,-3.9544,-3.9547,-3.9549,-3.9547,-3.9503,0,0,0,0,0,-3.9359,-3.9378,-3.9398,-3.9419,-3.9427,-3.9441,-3.9452,-3.9457,-3.9474,-3.948,-3.9492,-3.9507,-3.9525,-3.9536,-3.9553,-3.9579,-3.9584,-3.9591,-3.9593,-3.9595,-3.9597,-3.9614,-3.9618,-3.9577,-3.9577,-3.9577,0,0,-3.9364,-3.938,-3.9391,-3.9419,-3.9432,-3.9452,-3.9447,-3.9466,-3.9481,-3.9482,-3.9507,-3.9516,-3.9533,-3.9559,-3.9571,-3.9567,-3.961,-3.9597,-3.9598,-3.96,-3.9616,-3.962,-3.9624,-3.9579,-3.9578,-3.9578,0,0,-3.9383,-3.9397,-3.9418,-3.9432,-3.9453,-3.9462,-3.9467,-3.9488,-3.9495,-3.952,-3.9522,-3.9539,-3.9568,-3.9582,-3.9592,-3.962,-3.962,-3.9625,-3.9637,-3.9654,-3.9657,-3.966,-3.9671,-3.9675,-3.9628,-3.9628,-3.9628,0,-3.9387,-3.9417,-3.9428,-3.9449,-3.9462,-3.9467,-3.9488,-3.95,-3.9525,-3.9533,-3.9529,-3.9569,-3.958,-3.961,-3.9618,-3.9625,-3.9632,-3.9623,-3.9656,-3.9659,-3.9662,-3.9673,-3.9677,-3.9628,-3.9628,-3.9628,-3.9628,0,-3.9421,-3.9443,-3.9457,-3.9483,-3.9498,-3.9518,-3.9532,-3.9545,-3.955,-3.956,-3.9586,-3.9601,-3.9622,-3.9629,-3.9632,-3.9661,-3.9658,-3.9654,-3.9646,-3.9666,-3.9677,-3.9681,-3.9629,-3.9629,-3.9629,-3.9628,0,0,-3.9438,-3.9473,-3.9478,-3.9492,-3.9516,-3.9532,-3.9554,-3.9577,-3.9589,-3.9606,-3.9625,-3.9651,-3.965,-3.9662,-3.9667,-3.9681,-3.9705,-3.9676,-3.9677,-3.9682,-3.9738,-3.9742,-3.9746,-3.9705,-3.9706,-3.9706,-3.9738,0,-3.9462,-3.9503,-3.9514,-3.9548,-3.9569,-3.9575,-3.9594,-3.9611,-3.9621,-3.964,-3.965,-3.967,-3.9665,-3.9673,-3.9687,-3.9699,-3.9716,-3.9696,-3.9723,-3.9723,-3.9719,-3.9752,-3.9755,-3.9783,-3.9742,-3.9742,-3.9743,0,-3.9494,-3.9516,-3.9553,-3.9578,-3.9587,-3.9604,-3.9627,-3.9645,-3.9665,-3.9671,-3.9686,-3.9691,-3.9714,-3.9704,-3.9736,-3.9723,-3.9734,-3.9742,-3.9743,-3.9746,-3.9735,-3.9757,-3.9792,-3.9797,-3.9749,-3.9749,-3.9748,0,-3.9506,-3.9543,-3.9571,-3.9582,-3.9611,-3.9623,-3.9636,-3.9655,-3.9669,-3.9689,-3.9699,-3.972,-3.9732,-3.9748,-3.9759,-3.975,-3.9791,-3.9781,-3.9797,-3.9797,-3.9806,-3.9805,-3.9844,-3.9811,-3.9811,-3.9811,-3.9811,0,-3.9531,-3.9554,-3.9577,-3.9594,-3.962,-3.9633,-3.9658,-3.967,-3.9688,-3.9708,-3.9713,-3.9731,-3.9743,-3.9763,-3.9771,-3.9798,-3.9802,-3.9808,-3.9811,-3.9809,-3.9808,-3.9817,-3.9815,-3.9812,-3.9812,-3.9812,-3.9811,0,-3.9548,-3.9564,-3.9595,-3.9621,-3.9629,-3.9647,-3.9669,-3.9686,-3.9698,-3.9722,-3.9729,-3.9746,-3.977,-3.9783,-3.9811,-3.9817,-3.9847,-3.9847,-3.9841,-3.9842,-3.9858,-3.9857,-3.9905,-3.9913,-3.9873,-3.9874,-3.9874,0,-3.9563,-3.9582,-3.9611,-3.9626,-3.964,-3.9662,-3.9678,-3.9692,-3.9707,-3.9733,-3.9747,-3.9772,-3.9792,-3.983,-3.9845,-3.9867,-3.9869,-3.9884,-3.9872,-3.987,-3.9871,-3.987,-3.9873,-3.9886,-3.9887,-3.9887,-3.9887,0,-3.959,-3.9598,-3.9621,-3.9648,-3.9667,-3.9688,-3.9708,-3.9719,-3.9737,-3.9754,-3.978,-3.9796,-3.9827,-3.9852,-3.9876,-3.9888,-3.9891,-3.9891,-3.9896,-3.9895,-3.9892,-3.9896,-3.9848,-3.989,-3.989,-3.9889,-3.9889,-3.9889,-3.9607,-3.9625,-3.965,-3.9676,-3.9694,-3.9714,-3.9732,-3.9747,-3.977,-3.9798,-3.9804,-3.9832,-3.9853,-3.9887,-3.99,-3.9921,-3.9918,-3.9925,-3.9927,-3.9929,-3.9931,-3.9888,-3.9925,-3.9925,-3.9925,-3.9925,-3.9925,0,-3.9636,-3.9653,-3.9677,-3.9708,-3.9729,-3.9732,-3.9755,-3.9772,-3.9797,-3.9818,-3.9839,-3.987,-3.9895,-3.9913,-3.9938,-3.9952,-3.9954,-3.9958,-3.9958,-3.9961,-3.9931,-3.9925,-3.9956,-3.9956,-3.9956,-3.9956,-3.9956,-3.9956,-3.9653,-3.9684,-3.9696,-3.9736,-3.9752,-3.9782,-3.9795,-3.9814,-3.9831,-3.9866,-3.9888,-3.99,-3.992,-3.9947,-3.997,-3.9975,-3.9984,-3.9989,-3.9994,-3.9966,-3.9962,-3.9959,-3.9954,-3.999,-3.999,-4.0022,-4.0022,-4.0022]}]]